Regional Weather Roundup
Issued by NWS Jackson, KY

Home | Current Version | Previous Version | Graphics & Text | Print | Product List | Glossary On
Versions: 1 2 3 4 5 6 7 8 9 10 11 12 13 14 15 16 17 18 19 20 21 22 23 24 25 26 27 28 29 30 31 32 33 34 35 36 37 38 39 40 41 42 43 44 45 46 47 48 49 50
000
ASUS43 KJKL 011810
RWRJKL

EAST KENTUCKY HOURLY WEATHER ROUNDUP
NATIONAL WEATHER SERVICE JACKSON KY
200 PM EDT WED JUL 01 2015

NOTE: "FAIR" INDICATES FEW OR NO CLOUDS BELOW 12,000 FEET WITH
NO SIGNIFICANT WEATHER AND/OR OBSTRUCTIONS TO VISIBILITY.

* THESE REPORTS ARE NOT UNDER NWS QUALITY CONTROL AND MAY NOT
  REPORT WEATHER SUCH AS PRECIPITATION AND FOG.

KYZ079-080-083-085-087-088-110-112-115-119-120-011900
...EASTERN KENTUCKY...

CITY           SKY/WX    TMP DP  RH WIND       PRES   REMARKS
JACKSON        MOSUNNY   78  68  71 VRB3      29.97F
6HR MIN TEMP:  65; 6HR MAX TEMP:  79;

LONDON         CLOUDY    77  66  68 W8        29.99S
6HR MIN TEMP:  70; 6HR MAX TEMP:  80; 6HR PCP: TRACE;

SOMERSET*      RAIN      72  70  94 W9        30.00S
MONTICELLO*    CLOUDY    73  71  93 S7        30.03R
6HR MIN TEMP:  73; 6HR MAX TEMP:  78;

MIDDLESBORO*   CLOUDY    78  70  76 CALM      30.00S
6HR MIN TEMP:  66; 6HR MAX TEMP:  80;

HARLAN APT*      N/A     77  64  65 W5        30.01S
HAZARD APT*    PTCLDY    77  68  73 SW6       29.98
BLACK MTN*       N/A     68  64  88 CALM        N/A
PIKEVILLE APT* PTSUNNY   77  66  69 SW6       29.98S
BIG SANDY*     MOCLDY    78  69  74 CALM      29.97S
6HR MIN TEMP:  65; 6HR MAX TEMP:  78;

MOREHEAD APT*  MOCLDY    77  66  69 NW5G12    29.98F
$$

KYZ035-036-041-042-044-050-067-078-099-011900
...CENTRAL KENTUCKY...

CITY           SKY/WX    TMP DP  RH WIND       PRES   REMARKS
MT STERLING*   PTSUNNY   79  70  73 NW6       29.97F
FLEMING/MASON* MOSUNNY   77  63  61 CALM      29.97S
DANVILLE*      LGT RAIN  73  70  88 W6        29.99R
RICHMOND*      CLOUDY    77  68  73 W9        29.96S
LEXINGTON      PTSUNNY   78  69  73 N6        29.96S
6HR MIN TEMP:  67; 6HR MAX TEMP:  79;

FRANKFORT      PTSUNNY   77  67  71 CALM      29.95S
6HR MIN TEMP:  67; 6HR MAX TEMP:  78;

$$

KYZ091>093-OHZ055-061-077-WVZ005-015-034-035-042-011900
...SOUTHERN OHIO/WEST VIRGINIA...

CITY           SKY/WX    TMP DP  RH WIND       PRES   REMARKS
COVINGTON      PTSUNNY   78  63  59 NW6       29.95F
COLUMBUS       MOSUNNY   76  60  57 W13G18    29.93F
DAYTON         MOSUNNY   77  60  55 NW7       29.95F
WILMINGTON     PTSUNNY   76  56  49 NW8       29.94F
HUNTINGTON     PTSUNNY   76  66  71 VRB3      29.94F
CHARLESTON     PTSUNNY   74  65  73 SW9       29.96F
PINEVILLE*     PTSUNNY   80  67  64 MISG      30.03F
BECKLEY        MOSUNNY   76  58  53 W14G22    30.02S
BLUEFIELD      MOSUNNY   76  59  55 W9        30.05F
$$

VAZ002-007-008-TNZ017-027-036-066-071-011900
...SOUTHWEST VIRGINIA/EAST TENNESSEE...

CITY           SKY/WX    TMP DP  RH WIND       PRES   REMARKS
WISE*          PTSUNNY   73  63  68 W5        30.06S
JONESVILLE*      N/A    N/A N/A N/A MISG        N/A
ABINGDON*      PTSUNNY   78  66  65 W13       30.03F
BRISTOL        CLOUDY    80  66  62 SW13      30.01F
KNOXVILLE      CLOUDY    78  69  73 SW8       30.01S
OAK RIDGE      CLOUDY    77  70  79 VRB7      30.02S
CROSSVILLE     CLOUDY    76  67  73 W6        30.07S
NASHVILLE      LGT RAIN  69  68  96 NW9G28    30.05R FOG
$$

...KEY TO REMARKS...
VSB - VISIBILITY IN MILES
WCI - WIND CHILL INDEX
HX  - HEAT INDEX

$$


USA.gov is the U.S. government's official web portal to all federal, state and local government web resources and services.